Vorticity
nan nan nan nan nan nan nan nan nan nan nan nan nan nan nan nan nan nan nan nan nan nan nan nan nan nan nan nan nan nan nan nan nan nan nan nan nan nan nan nan nan nan nan nan nan
nan 7 7 7 7 7 7 7 7 7 7 7 6 7 7 12 17 9 8 9 16 6 -0 -0 6 8 7 7 9 7 7 2 5 6 7 9 6 8 5 5 6 7 16 13 nan
nan 7 7 7 7 7 7 8 8 7 8 7 7 7 7 15 16 12 -1 14 19 2 0 6 6 6 7 7 7 6 4 5 7 12 11 9 9 4 6 8 8 15 11 6 nan
nan 8 7 7 8 7 7 7 8 8 8 7 7 8 16 18 9 4 0 17 18 7 6 7 7 6 4 7 7 5 4 5 5 9 11 9 6 7 4 7 16 18 12 6 nan
nan 7 7 7 7 8 8 8 8 9 8 8 7 11 18 9 11 2 7 12 10 9 8 5 6 7 4 7 9 5 1 8 12 13 12 9 5 5 10 9 15 12 10 6 nan
nan 6 6 6 7 8 9 8 8 9 8 7 7 15 16 5 11 5 8 7 7 9 8 5 5 5 9 6 6 5 8 11 16 13 12 7 8 8 13 10 9 8 7 7 nan
nan 6 5 5 7 8 9 9 10 11 10 8 10 14 11 12 4 3 3 5 1 7 9 7 7 3 5 7 7 9 12 5 8 10 11 10 11 13 11 9 6 6 7 7 nan
nan 6 5 6 7 8 9 10 13 18 15 10 10 9 9 12 5 9 7 7 7 8 7 8 8 7 6 7 7 9 12 5 -1 10 12 5 8 18 11 8 5 5 7 7 nan
nan 6 7 6 7 9 9 11 21 20 14 10 8 6 10 10 11 13 14 9 11 10 10 9 8 7 9 6 8 10 7 8 4 6 9 8 2 12 15 8 7 6 7 7 nan
nan 8 6 7 9 12 15 20 18 12 7 3 11 12 12 4 8 12 15 15 8 5 7 7 6 7 4 8 7 9 6 4 5 8 11 12 7 8 12 10 8 6 6 7 nan
nan 9 7 7 9 15 22 18 11 9 2 3 3 8 6 7 11 11 11 13 7 6 5 8 4 8 5 3 5 6 6 6 8 8 8 11 11 10 11 10 8 9 6 6 nan
nan 7 8 9 12 18 16 5 7 8 15 17 2 5 4 7 13 14 10 9 7 5 6 5 9 5 8 7 3 4 6 12 4 6 11 6 7 10 12 10 9 7 7 7 nan
nan 6 6 9 22 19 10 14 2 8 14 17 12 14 16 8 8 14 10 9 8 7 7 5 12 10 7 1 7 1 7 5 7 11 12 9 11 8 9 9 11 9 8 9 nan
nan 7 5 21 19 9 15 7 10 10 11 12 11 15 11 6 15 14 14 6 9 13 7 10 13 11 4 1 6 6 10 4 9 9 8 10 13 13 8 10 10 11 10 9 nan
nan 9 13 15 14 7 5 7 12 10 11 9 10 8 14 7 12 18 10 10 8 9 10 10 6 7 7 10 3 12 2 7 12 11 9 12 2 9 13 15 14 11 11 10 nan
nan 7 18 17 9 7 5 13 10 7 11 10 10 11 9 9 4 13 8 6 12 13 7 2 12 15 8 9 6 9 6 7 6 10 7 7 8 5 7 14 19 15 9 10 nan
nan 11 19 9 9 11 14 13 6 11 9 7 8 14 10 8 8 9 10 8 4 5 10 10 7 8 14 7 7 2 5 7 10 5 7 6 5 7 9 13 18 15 9 7 nan
nan 25 21 8 7 10 12 7 7 11 10 7 12 13 14 8 5 8 10 9 7 3 4 13 7 7 7 9 8 11 5 5 6 6 10 2 7 4 9 14 17 17 9 6 nan
nan 24 10 13 10 10 11 4 9 6 4 11 17 11 10 6 9 13 11 10 11 6 4 10 11 10 7 12 10 10 9 5 13 13 4 7 13 8 8 8 13 13 7 8 nan
nan 13 12 13 15 9 7 7 5 3 3 9 11 15 15 10 7 9 9 13 12 9 4 9 11 13 9 4 9 5 15 15 4 6 12 12 8 17 15 13 10 9 8 9 nan
nan 6 14 15 9 10 8 10 8 5 4 8 9 9 10 16 14 5 3 13 17 8 6 4 12 12 8 16 7 5 4 -1 3 12 15 11 8 13 11 18 16 9 11 9 nan
nan 15 8 7 10 10 12 5 7 11 7 6 8 9 12 14 15 9 8 11 18 9 7 6 12 11 4 -0 7 12 16 10 14 8 2 4 16 8 10 17 19 13 13 8 nan
nan 14 11 9 13 8 11 8 6 12 6 7 9 8 8 8 13 15 11 13 14 13 5 5 7 6 10 2 6 12 12 8 3 10 13 6 13 8 11 17 15 13 11 8 nan
nan 16 10 8 6 13 13 13 12 9 9 9 8 8 6 14 14 10 12 16 13 15 9 1 6 9 10 5 11 10 7 12 8 8 7 12 4 13 10 14 11 12 12 9 nan
nan 5 13 16 8 7 8 11 12 11 13 10 9 5 9 21 19 11 10 10 12 19 16 3 4 4 0 8 6 14 16 10 3 5 6 12 9 9 10 15 14 11 12 10 nan
nan 9 8 12 15 11 7 4 10 12 12 8 3 6 12 14 10 10 19 14 8 15 15 9 8 8 1 6 5 11 10 10 8 6 7 2 10 8 10 16 16 11 11 10 nan
nan nan nan nan nan nan nan nan nan nan nan nan nan nan nan nan nan nan nan nan nan nan nan nan nan nan nan nan nan nan nan nan nan nan nan nan nan nan nan nan nan nan nan nan nan
CAPE
4 3 3 2 1 1 3 1 1 3 3 1 1 0 0 0 0 0 0 0 0 744 179 0 0 0 0 2 59 116 77 35 30 55 314 881 963 1292 1281 1327 1141 1146 1117 1129 911
2 2 3 3 4 4 3 3 3 2 2 2 1 0 0 0 0 0 0 227 0 479 0 0 0 0 0 0 2 16 9 0 0 9 322 896 979 1237 1226 1310 1511 1560 1422 1300 949
3 2 3 2 5 4 4 2 3 2 2 1 0 0 0 0 0 0 0 808 348 363 0 0 0 0 5 0 0 0 0 0 0 0 67 621 1059 1117 1029 1134 1074 1479 1629 1330 1204
3 1 3 1 2 2 1 4 2 3 3 1 0 0 0 0 0 0 0 589 856 13 0 0 0 0 5 0 0 1 0 0 0 0 117 627 766 988 945 1356 1201 1463 1544 1454 1345
2 1 3 2 2 2 2 3 1 2 2 1 0 0 0 0 0 0 0 0 0 0 0 0 0 0 3 0 0 0 0 0 0 0 137 618 776 739 935 1381 1415 1482 1511 1557 1322
1 3 4 2 3 1 3 2 4 1 2 0 0 0 0 0 0 0 0 0 0 0 0 0 0 0 0 0 0 0 0 0 0 0 335 400 630 897 925 1561 1575 1386 1471 1493 1209
2 3 3 1 1 1 1 1 2 2 1 0 0 0 0 0 0 0 0 0 0 0 0 0 0 0 0 0 0 0 0 0 0 0 40 375 634 655 1110 1622 1582 1313 1411 1383 1335
0 1 3 2 4 3 4 2 2 1 0 0 0 0 0 0 0 0 0 0 0 0 0 0 0 0 0 0 0 8 4 14 0 0 0 114 45 580 1260 1589 1673 1434 1390 1483 1478
1 1 3 5 4 6 4 0 0 0 0 0 0 0 0 0 0 0 0 0 0 0 0 0 0 0 0 17 25 6 44 1 0 0 2 8 48 822 1295 1500 1673 1634 1399 1409 1519
1 2 3 0 3 4 1 0 0 0 0 0 0 0 0 0 0 0 0 0 0 0 0 0 0 16 47 51 67 30 33 1 0 0 223 85 77 819 1441 1446 1639 1703 1724 1636 1578
0 1 1 0 1 1 0 0 0 0 0 0 0 0 0 0 0 0 0 0 0 0 0 0 0 26 61 43 4 2 8 4 0 23 325 493 311 567 1391 1669 1662 1672 1782 1741 1713
1 0 1 0 1 0 0 0 0 0 0 0 0 0 0 0 0 0 0 0 0 0 0 0 0 38 47 5 15 11 14 36 2 20 267 583 489 761 1050 1526 1687 1695 1684 1737 1803
0 0 0 1 0 0 0 0 0 0 0 0 0 0 0 0 0 0 0 0 0 0 0 0 0 16 0 11 28 27 26 14 0 0 356 347 257 652 907 1144 1589 1817 1744 1753 1889
0 0 0 0 0 0 0 0 0 0 0 0 0 0 0 0 0 0 0 0 0 0 0 0 0 0 0 16 25 58 6 0 0 8 157 255 95 119 427 870 985 1574 1774 1561 1511
0 0 0 0 0 0 0 0 0 0 0 0 0 0 0 0 0 0 0 0 0 0 0 0 0 0 0 3 26 37 0 0 0 12 37 210 48 98 567 331 795 1107 1393 1273 1005
0 0 0 0 0 0 0 0 0 0 0 0 0 0 0 0 0 0 0 0 0 0 0 0 0 0 0 0 0 0 0 0 0 6 53 70 19 61 48 279 524 873 964 748 737
0 0 2 0 0 0 0 0 0 0 0 0 0 0 0 0 0 0 0 0 0 0 0 0 0 0 0 0 0 0 9 93 46 45 55 13 32 39 35 192 297 621 779 763 949
0 0 0 0 0 0 0 0 0 0 0 0 0 0 0 0 0 0 0 0 0 0 0 0 0 0 0 0 0 0 29 96 128 99 101 87 7 79 439 379 414 390 778 644 1273
0 0 0 0 0 0 0 0 0 0 0 0 0 0 0 0 0 0 0 0 0 0 0 0 0 0 0 0 0 1 0 19 23 1 0 7 30 93 406 569 590 576 806 821 1546
0 0 0 0 0 0 0 0 0 0 0 0 0 0 0 0 0 0 0 0 0 0 0 0 8 0 0 0 0 0 5 10 6 8 7 13 48 68 670 702 606 601 875 956 1891
0 0 0 0 0 0 0 0 0 0 0 0 0 0 0 0 0 0 0 0 0 0 0 0 1 0 0 0 3 0 0 0 7 12 24 112 179 224 369 541 781 659 874 1199 1892
0 0 0 0 0 0 0 0 0 0 0 0 0 0 0 0 0 0 0 0 0 0 0 0 0 2 0 1 4 11 11 16 25 130 18 110 217 366 530 736 719 663 882 1484 1815
0 0 0 0 0 0 0 0 0 0 0 0 0 0 0 1 0 0 0 0 0 0 0 0 0 27 15 1 14 85 37 12 33 72 234 297 424 572 617 785 809 850 952 1921 2211
0 3 0 0 0 0 0 0 0 0 0 0 0 0 43 195 203 12 0 0 0 0 163 0 0 18 66 70 67 51 119 152 65 159 256 296 223 576 612 805 755 992 1399 2237 2585
0 10 23 0 0 0 0 0 0 0 4 11 39 44 191 533 251 96 0 0 0 0 0 0 6 11 0 0 0 42 109 254 164 188 238 88 118 622 568 693 757 961 1783 2441 2682
2 0 0 0 0 0 0 11 10 0 204 38 113 168 591 776 717 661 483 0 0 0 0 0 26 50 21 28 13 1 64 112 185 239 305 233 191 674 631 661 884 1046 1541 2443 2709
0 0 0 7 119 45 7 10 113 215 126 248 241 473 651 705 557 465 343 285 43 0 0 0 0 18 53 109 31 49 30 118 156 226 267 244 295 710 791 932 849 977 1663 2224 2456